Matala Airport

Jump to: basic info | weather | runways | comments

Related pages: nearby airports | nearby navaids | notams | map

Basic information (top)

Codes: FN18
Location: lon -14.727500, lat 15.014000, elev 4,120 ft / 1,256 m msl
Status: small_airport

Weather (top)

Current conditions for Lubango Airport 84nm (156km) W (rec'd 2014/10/21 15:00Z):

FNUB 211500Z 02012KT 9999 FEW030 30/12 Q1021

Airport forecast for Lubango Airport 84nm (156km) W (rec'd 2014/10/21 12:00Z):

TAF FNUB 211100Z 2112/2124 18020KT CAVOK 
      BECMG 2112/2114 25010G15KT 9999 SCT030 
      BECMG 2118/2120 12005KT BKN020

Runways (top)

10/28: 8,015 x 98 ft (2,443 x 30 m) — paved — not lighted

Latest comments (top)

No comments yet for Matala Airport

More... (top)

See also NOTAMs and nearby airports and navaids, or visit the Matala Airport page at the main OurAirports website..